Tracking 19817 objects as of 18-Aug-2019
HD Live streaming from Space Station
objects crossing your sky now

COSMOS 2251 DEB

Track COSMOS 2251 DEB now!
10-day predictions


NORAD ID: 33938
Int'l Code: 1993-036ET
Perigee: 755.2 km
Apogee: 780.2 km
Inclination: 74.0 °
Period: 100.0 minutes
Semi major axis: 7138 km
RCS: 0.073 m2 (small)
Launch date: June 16, 1993
Source: Commonwealth of Independent States (former USSR) (CIS)
Launch site: PLESETSK MISSILE AND SPACE COMPLEX (PKMTR)

Note: This is SATELLITE DEBRIS
aabbcc
Your satellite tracking list
Your tracking list is empty




NASA's NSSDC Master Catalog

Two Line Element Set (TLE):
1 33938U 93036ET  19229.17611420  .00000188  00000-0  68735-4 0  9992
2 33938  74.0495 161.7782 0017502  99.6883  15.6274 14.39368026551320
Source of the keplerian elements: AFSPC